(1036) Ganymed
ephemeris date magn radius delta ra dec elong phase
Today21 Jun 202616.13.976 AU4.419 AU09h21m-06°10'58.1°12.5°
Opposition21 Mar 202715.04.015 AU3.069 AU11h30m-19°38'159.1°5.1°
(1036) Ganymed - 2026-06-21
astro.vanbuitenen.nl


 
-1 year
-1 month
-1 day
Now
+1 day
+1 month
+1 year

The interactive orbit chart above shows the body's path through the solar system and its position at the given date. Green and blue lines are shown perpendicular to the ecliptic plane: Green if the path is above the ecliptic plane, blue if it is below. (Left-click and drag to rotate the view; Right-click and drag to move the view; Use scroll wheel to zoom in our out.)

The orbital elements of Ganymed are:

            e (Eccentricity)                : 0.5335007
            a (Semimajor axis)              : 2.6640688
            i (Inclination)                 : 26.68765
            Ω (Longitude of ascending node) : 215.39774
            ω (Argument of perihelion)      : 132.50731
            M (Mean anomaly)                : 142.96531
            Epoch                           : 2026 Jun 09

            L (Longitude of perihelion)     : 171.12885
            B (Latitude of perihelion)      : 19.33507
            P (Orbital period in years)     : 4.35            
        

The light curve chart below shows the estimated development of the minor planet's magnitude.


The all-sky chart below shows the path of the minor planet over the same period as the light curve. The current position is marked yellow.





The following chart shows the path of the minor planet in the next few days. The field of view is optimized for (~10x50) binoculars and finderscopes.




Ephemerides:
Date       Time       RA (2000)    DEC (2000)    delta   radius  elong  phase   PA    magn
2026-06-21 00:00 UT   09 21 54.3   -06 10 05     4.419    3.976   58.1   12.5   123   16.1 
2026-06-21 17:30 UT   09 22 32.3   -06 09 53     4.428    3.977   57.6   12.5   123   16.1 
2026-06-22 00:00 UT   09 22 46.4   -06 09 50     4.432    3.978   57.4   12.4   123   16.1 
2026-06-23 00:00 UT   09 23 38.9   -06 09 40     4.445    3.979   56.7   12.3   123   16.1 
2026-06-24 00:00 UT   09 24 31.7   -06 09 36     4.458    3.981   56.0   12.2   124   16.1 
2026-06-25 00:00 UT   09 25 24.7   -06 09 38     4.471    3.982   55.4   12.1   124   16.2 
2026-06-26 00:00 UT   09 26 18.1   -06 09 45     4.484    3.984   54.7   12.0   124   16.2 
2026-06-27 00:00 UT   09 27 11.7   -06 09 58     4.497    3.985   54.0   11.9   125   16.2 
2026-06-28 00:00 UT   09 28 05.6   -06 10 16     4.509    3.986   53.3   11.8   125   16.2 
2026-06-29 00:00 UT   09 28 59.8   -06 10 40     4.522    3.988   52.6   11.7   126   16.2 
2026-06-30 00:00 UT   09 29 54.2   -06 11 09     4.534    3.989   52.0   11.6   126   16.2 
2026-07-01 00:00 UT   09 30 48.8   -06 11 43     4.546    3.990   51.3   11.5   126   16.2 
2026-07-02 00:00 UT   09 31 43.7   -06 12 23     4.558    3.992   50.6   11.4   127   16.2 
2026-07-03 00:00 UT   09 32 38.9   -06 13 09     4.570    3.993   50.0   11.2   127   16.2 
2026-07-04 00:00 UT   09 33 34.3   -06 13 59     4.582    3.994   49.3   11.1   128   16.2 
2026-07-05 00:00 UT   09 34 29.9   -06 14 55     4.594    3.996   48.6   11.0   128   16.2 
2026-07-06 00:00 UT   09 35 25.7   -06 15 55     4.606    3.997   48.0   10.9   128   16.2 
2026-07-07 00:00 UT   09 36 21.8   -06 17 01     4.617    3.998   47.3   10.8   129   16.2 
2026-07-08 00:00 UT   09 37 18.0   -06 18 13     4.628    4.000   46.7   10.7   129   16.2 
2026-07-09 00:00 UT   09 38 14.5   -06 19 29     4.640    4.001   46.0   10.5   130   16.2 
2026-07-10 00:00 UT   09 39 11.2   -06 20 50     4.651    4.002   45.4   10.4   130   16.2 
2026-07-11 00:00 UT   09 40 08.0   -06 22 16     4.661    4.003   44.7   10.3   131   16.2 
2026-07-12 00:00 UT   09 41 05.1   -06 23 47     4.672    4.005   44.1   10.2   131   16.2 
2026-07-13 00:00 UT   09 42 02.3   -06 25 23     4.683    4.006   43.4   10.0   132   16.2 
2026-07-14 00:00 UT   09 42 59.8   -06 27 04     4.693    4.007   42.8    9.9   132   16.2 
2026-07-15 00:00 UT   09 43 57.4   -06 28 50     4.704    4.008   42.1    9.8   133   16.2 
2026-07-16 00:00 UT   09 44 55.1   -06 30 40     4.714    4.010   41.5    9.7   133   16.2 
2026-07-17 00:00 UT   09 45 53.0   -06 32 35     4.724    4.011   40.9    9.5   134   16.2 
2026-07-18 00:00 UT   09 46 51.1   -06 34 35     4.734    4.012   40.2    9.4   134   16.2 
2026-07-19 00:00 UT   09 47 49.3   -06 36 40     4.744    4.013   39.6    9.3   135   16.2 
2026-07-20 00:00 UT   09 48 47.7   -06 38 49     4.753    4.014   39.0    9.2   135   16.2 
2026-07-21 00:00 UT   09 49 46.2   -06 41 03     4.763    4.015   38.3    9.0   136   16.2 


    Terminology:
            
    delta:  distance between minor planet and earth in AU
    radius: distance between minor planet and sun in AU
    magn:   magnitude (brightness) estimate    
    ra:     right ascension in hours (24h = 360deg)
    dec:    declination in degrees
    elong:  elongation in degrees (angle sun-earth-minor planet)    
    phase:  phase angle in degrees (angle sun-minor planet-earth)        
    AU:     Astronomical Unit (mean distance between earth and sun: 149597870.7 km
    

Orbital elements provided by the MPC (Minor Planet Center).
Calculations by a modified version of AAPlus, a C# implementation of the AA+ project by PJ Naughter from the algorithms presented in the book "Astronomical Algorithms" by Jean Meeus.
NGC2000 dso catalog and star labels from VizieR as provided by the Strasbourg astronomical Data Center.
Tycho2 catalog from the ESO archive.